owner,sensor,date,latitude,longitude,vertical_datum,direction_of_sea_water_velocity,sea_water_speed,upward_sea_water_velocity,qcFlag 
COMPS,ioos:station:USF.COMPS:C10:1,2009-01-01T00:00:00Z,27.1690,-82.9260,4.0,321.340191746,6.40312423743,-99999.0,'1111122,1111122,1199999999' 
COMPS,ioos:station:USF.COMPS:C10:1,2009-01-01T01:00:00Z,27.1690,-82.9260,4.0,303.690067526,7.21110255093,-99999.0,'1111122,1111122,1199999999' 
COMPS,ioos:station:USF.COMPS:C10:1,2009-01-01T02:00:00Z,27.1690,-82.9260,4.0,310.601294645,9.21954445729,-99999.0,'1111122,1111122,1199999999' 
COMPS,ioos:station:USF.COMPS:C10:1,2009-01-01T03:00:00Z,27.1690,-82.9260,4.0,318.814074834,10.6301458127,-99999.0,'1111122,1111122,1199999999' 
COMPS,ioos:station:USF.COMPS:C10:1,2009-01-01T04:00:00Z,27.1690,-82.9260,4.0,318.012787504,13.4536240471,-99999.0,'1111122,1111122,1199999999' 
COMPS,ioos:station:USF.COMPS:C10:1,2009-01-01T05:00:00Z,27.1690,-82.9260,4.0,304.695153531,15.8113883008,-99999.0,'1111122,1111122,1199999999' 
COMPS,ioos:station:USF.COMPS:C10:1,2009-01-01T06:00:00Z,27.1690,-82.9260,4.0,292.380135052,18.3847763109,-99999.0,'1111122,1111122,1199999999' 
COMPS,ioos:station:USF.COMPS:C10:1,2009-01-01T07:00:00Z,27.1690,-82.9260,4.0,282.528807709,18.4390889146,-99999.0,'1111122,1111122,1199999999' 
COMPS,ioos:station:USF.COMPS:C10:1,2009-01-01T08:00:00Z,27.1690,-82.9260,4.0,270.0,17.0,-99999.0,'1111122,1111122,1199999999' 
COMPS,ioos:station:USF.COMPS:C10:1,2009-01-01T09:00:00Z,27.1690,-82.9260,4.0,270.0,16.0,-99999.0,'1111122,1111122,1199999999' 
COMPS,ioos:station:USF.COMPS:C10:1,2009-01-01T10:00:00Z,27.1690,-82.9260,4.0,255.068582822,15.5241746963,-99999.0,'1111122,1111122,1199999999' 
COMPS,ioos:station:USF.COMPS:C10:1,2009-01-01T12:00:00Z,27.1690,-82.9260,4.0,284.036243468,8.24621125124,-99999.0,'1111122,1111122,1199999999' 
COMPS,ioos:station:USF.COMPS:C10:1,2009-01-01T14:00:00Z,27.1690,-82.9260,4.0,300.963756532,5.83095189485,-99999.0,'1111122,1111122,1199999999' 
COMPS,ioos:station:USF.COMPS:C10:1,2009-01-01T15:00:00Z,27.1690,-82.9260,4.0,305.537677792,8.60232526704,-99999.0,'1111122,1111122,1199999999' 
COMPS,ioos:station:USF.COMPS:C10:1,2009-01-01T16:00:00Z,27.1690,-82.9260,4.0,320.194428908,7.81024967591,-99999.0,'1111122,1111122,1199999999' 
COMPS,ioos:station:USF.COMPS:C10:1,2009-01-01T17:00:00Z,27.1690,-82.9260,4.0,333.434948823,8.94427191,-99999.0,'1111122,1111122,1199999999' 
COMPS,ioos:station:USF.COMPS:C10:1,2009-01-01T18:00:00Z,27.1690,-82.9260,4.0,330.255118703,8.0622577483,-99999.0,'1111122,1111122,1199999999' 
COMPS,ioos:station:USF.COMPS:C10:1,2009-01-01T19:00:00Z,27.1690,-82.9260,4.0,329.036243468,5.83095189485,-99999.0,'1111122,1111122,1199999999' 
COMPS,ioos:station:USF.COMPS:C10:1,2009-01-01T20:00:00Z,27.1690,-82.9260,4.0,329.036243468,5.83095189485,-99999.0,'1111122,1111122,1199999999' 
COMPS,ioos:station:USF.COMPS:C10:1,2009-01-01T21:00:00Z,27.1690,-82.9260,4.0,329.036243468,5.83095189485,-99999.0,'1111122,1111122,1199999999' 
COMPS,ioos:station:USF.COMPS:C10:1,2009-01-01T22:00:00Z,27.1690,-82.9260,4.0,315.0,1.41421356237,-99999.0,'1111122,1111122,1199999999' 
COMPS,ioos:station:USF.COMPS:C10:1,2009-01-01T23:00:00Z,27.1690,-82.9260,4.0,45.0,1.41421356237,-99999.0,'1111122,1111122,1199999999' 
COMPS,ioos:station:USF.COMPS:C10:1,2009-01-02T00:00:00Z,27.1690,-82.9260,4.0,90.0,1.0,-99999.0,'1113322,1111122,1199999999' 
COMPS,ioos:station:USF.COMPS:C10:1,2009-01-02T01:00:00Z,27.1690,-82.9260,4.0,171.869897646,7.07106781187,-99999.0,'1111122,1111122,1199999999' 
COMPS,ioos:station:USF.COMPS:C10:1,2009-01-02T02:00:00Z,27.1690,-82.9260,4.0,135.0,7.07106781187,-99999.0,'1111122,1111122,1199999999' 
COMPS,ioos:station:USF.COMPS:C10:1,2009-01-02T03:00:00Z,27.1690,-82.9260,4.0,129.805571092,7.81024967591,-99999.0,'1111122,1111122,1199999999' 
COMPS,ioos:station:USF.COMPS:C10:1,2009-01-02T04:00:00Z,27.1690,-82.9260,4.0,97.1250163489,8.0622577483,-99999.0,'1111122,1111122,1199999999' 
COMPS,ioos:station:USF.COMPS:C10:1,2009-01-02T05:00:00Z,27.1690,-82.9260,4.0,99.462322208,6.0827625303,-99999.0,'1111122,1111122,1199999999' 
COMPS,ioos:station:USF.COMPS:C10:1,2009-01-02T06:00:00Z,27.1690,-82.9260,4.0,90.0,6.0,-99999.0,'1111122,1111122,1199999999' 
COMPS,ioos:station:USF.COMPS:C10:1,2009-01-02T07:00:00Z,27.1690,-82.9260,4.0,105.945395901,7.28010988928,-99999.0,'1111122,1111122,1199999999' 
COMPS,ioos:station:USF.COMPS:C10:1,2009-01-02T08:00:00Z,27.1690,-82.9260,4.0,135.0,5.65685424949,-99999.0,'1111122,1111122,1199999999' 
COMPS,ioos:station:USF.COMPS:C10:1,2009-01-02T09:00:00Z,27.1690,-82.9260,4.0,135.0,2.82842712475,-99999.0,'1111122,1111122,1199999999' 
COMPS,ioos:station:USF.COMPS:C10:1,2009-01-02T10:00:00Z,27.1690,-82.9260,4.0,149.036243468,5.83095189485,-99999.0,'1111122,1111122,1199999999' 
COMPS,ioos:station:USF.COMPS:C10:1,2009-01-02T11:00:00Z,27.1690,-82.9260,4.0,159.44395478,8.54400374532,-99999.0,'1111122,1111122,1199999999' 
COMPS,ioos:station:USF.COMPS:C10:1,2009-01-02T12:00:00Z,27.1690,-82.9260,4.0,144.462322208,8.60232526704,-99999.0,'1111122,1111122,1199999999' 
COMPS,ioos:station:USF.COMPS:C10:1,2009-01-02T13:00:00Z,27.1690,-82.9260,4.0,140.194428908,7.81024967591,-99999.0,'1111122,1111122,1199999999' 
COMPS,ioos:station:USF.COMPS:C10:1,2009-01-02T14:00:00Z,27.1690,-82.9260,4.0,135.0,8.48528137424,-99999.0,'1111122,1111122,1199999999' 
COMPS,ioos:station:USF.COMPS:C10:1,2009-01-02T15:00:00Z,27.1690,-82.9260,4.0,111.801409486,10.7703296143,-99999.0,'1111122,1111122,1199999999' 
COMPS,ioos:station:USF.COMPS:C10:1,2009-01-02T16:00:00Z,27.1690,-82.9260,4.0,95.7105931375,10.0498756211,-99999.0,'1111122,1111122,1199999999' 
COMPS,ioos:station:USF.COMPS:C10:1,2009-01-02T17:00:00Z,27.1690,-82.9260,4.0,90.0,11.0,-99999.0,'1111122,1111122,1199999999' 
COMPS,ioos:station:USF.COMPS:C10:1,2009-01-02T18:00:00Z,27.1690,-82.9260,4.0,97.1250163489,8.0622577483,-99999.0,'1111122,1111122,1199999999' 
COMPS,ioos:station:USF.COMPS:C10:1,2009-01-02T19:00:00Z,27.1690,-82.9260,4.0,90.0,11.0,-99999.0,'1111122,1111122,1199999999' 
COMPS,ioos:station:USF.COMPS:C10:1,2009-01-02T20:00:00Z,27.1690,-82.9260,4.0,90.0,8.0,-99999.0,'1111122,1111122,1199999999' 
COMPS,ioos:station:USF.COMPS:C10:1,2009-01-02T21:00:00Z,27.1690,-82.9260,4.0,96.3401917459,9.05538513814,-99999.0,'1111122,1111122,1199999999' 
COMPS,ioos:station:USF.COMPS:C10:1,2009-01-02T22:00:00Z,27.1690,-82.9260,4.0,90.0,7.0,-99999.0,'1111122,1111122,1199999999' 
COMPS,ioos:station:USF.COMPS:C10:1,2009-01-02T23:00:00Z,27.1690,-82.9260,4.0,90.0,6.0,-99999.0,'1111122,1111122,1199999999' 
COMPS,ioos:station:USF.COMPS:C10:1,2009-01-03T00:00:00Z,27.1690,-82.9260,4.0,101.309932474,5.09901951359,-99999.0,'1111122,1111122,1199999999' 
COMPS,ioos:station:USF.COMPS:C10:1,2009-01-03T01:00:00Z,27.1690,-82.9260,4.0,90.0,5.0,-99999.0,'1111122,1111122,1199999999' 
COMPS,ioos:station:USF.COMPS:C10:1,2009-01-03T02:00:00Z,27.1690,-82.9260,4.0,90.0,6.0,-99999.0,'1111122,1111122,1199999999' 
COMPS,ioos:station:USF.COMPS:C10:1,2009-01-03T03:00:00Z,27.1690,-82.9260,4.0,90.0,7.0,-99999.0,'1111122,1111122,1199999999' 
COMPS,ioos:station:USF.COMPS:C10:1,2009-01-03T04:00:00Z,27.1690,-82.9260,4.0,71.5650511771,6.32455532034,-99999.0,'1111122,1111122,1199999999' 
COMPS,ioos:station:USF.COMPS:C10:1,2009-01-03T05:00:00Z,27.1690,-82.9260,4.0,60.2551187031,8.0622577483,-99999.0,'1111122,1111122,1199999999' 
COMPS,ioos:station:USF.COMPS:C10:1,2009-01-03T06:00:00Z,27.1690,-82.9260,4.0,51.3401917459,6.40312423743,-99999.0,'1111122,1111122,1199999999' 
COMPS,ioos:station:USF.COMPS:C10:1,2009-01-03T07:00:00Z,27.1690,-82.9260,4.0,38.6598082541,6.40312423743,-99999.0,'1111122,1111122,1199999999' 
COMPS,ioos:station:USF.COMPS:C10:1,2009-01-03T08:00:00Z,27.1690,-82.9260,4.0,45.0,4.24264068712,-99999.0,'1111122,1111122,1199999999' 
COMPS,ioos:station:USF.COMPS:C10:1,2009-01-03T09:00:00Z,27.1690,-82.9260,4.0,90.0,2.0,-99999.0,'1111122,1111122,1199999999' 
COMPS,ioos:station:USF.COMPS:C10:1,2009-01-03T10:00:00Z,27.1690,-82.9260,4.0,108.434948823,3.16227766017,-99999.0,'1111122,1111122,1199999999' 
COMPS,ioos:station:USF.COMPS:C10:1,2009-01-03T11:00:00Z,27.1690,-82.9260,4.0,135.0,2.82842712475,-99999.0,'1111122,1111122,1199999999' 
COMPS,ioos:station:USF.COMPS:C10:1,2009-01-03T12:00:00Z,27.1690,-82.9260,4.0,90.0,1.0,-99999.0,'1113322,1111122,1199999999' 
COMPS,ioos:station:USF.COMPS:C10:1,2009-01-03T21:00:00Z,27.1690,-82.9260,4.0,63.4349488229,6.7082039325,-99999.0,'1111122,1111122,1199999999' 
COMPS,ioos:station:USF.COMPS:C10:1,2009-01-03T22:00:00Z,27.1690,-82.9260,4.0,63.4349488229,2.2360679775,-99999.0,'1111122,1111122,1199999999' 
COMPS,ioos:station:USF.COMPS:C10:1,2009-01-03T23:00:00Z,27.1690,-82.9260,4.0,90.0,2.0,-99999.0,'1111122,1111122,1199999999' 
COMPS,ioos:station:USF.COMPS:C10:1,2009-01-04T00:00:00Z,27.1690,-82.9260,4.0,90.0,2.0,-99999.0,'1111122,1111122,1199999999' 
COMPS,ioos:station:USF.COMPS:C10:1,2009-01-04T01:00:00Z,27.1690,-82.9260,4.0,45.0,1.41421356237,-99999.0,'1111122,1111122,1199999999' 
COMPS,ioos:station:USF.COMPS:C10:1,2009-01-04T02:00:00Z,27.1690,-82.9260,4.0,45.0,1.41421356237,-99999.0,'1111122,1111122,1199999999' 
COMPS,ioos:station:USF.COMPS:C10:1,2009-01-04T03:00:00Z,27.1690,-82.9260,4.0,26.5650511771,2.2360679775,-99999.0,'1111122,1111122,1199999999' 
COMPS,ioos:station:USF.COMPS:C10:1,2009-01-04T04:00:00Z,27.1690,-82.9260,4.0,0.0,2.0,-99999.0,'1111122,1114422,1199999999' 
COMPS,ioos:station:USF.COMPS:C10:1,2009-01-04T05:00:00Z,27.1690,-82.9260,4.0,270.0,1.0,-99999.0,'1113322,1111122,1199999999' 
COMPS,ioos:station:USF.COMPS:C10:1,2009-01-04T06:00:00Z,27.1690,-82.9260,4.0,90.0,1.0,-99999.0,'1113322,1111122,1199999999' 
COMPS,ioos:station:USF.COMPS:C10:1,2009-01-04T07:00:00Z,27.1690,-82.9260,4.0,0.0,0.0,-99999.0,'1114422,1114422,1199999999' 
COMPS,ioos:station:USF.COMPS:C10:1,2009-01-04T08:00:00Z,27.1690,-82.9260,4.0,180.0,2.0,-99999.0,'1111122,1111122,1199999999' 
COMPS,ioos:station:USF.COMPS:C10:1,2009-01-04T09:00:00Z,27.1690,-82.9260,4.0,198.434948823,3.16227766017,-99999.0,'1111122,1111122,1199999999' 
COMPS,ioos:station:USF.COMPS:C10:1,2009-01-04T10:00:00Z,27.1690,-82.9260,4.0,243.434948823,2.2360679775,-99999.0,'1111122,1111122,1199999999' 
COMPS,ioos:station:USF.COMPS:C10:1,2009-01-04T11:00:00Z,27.1690,-82.9260,4.0,236.309932474,3.60555127546,-99999.0,'1111122,1111122,1199999999' 
COMPS,ioos:station:USF.COMPS:C10:1,2009-01-04T12:00:00Z,27.1690,-82.9260,4.0,251.565051177,3.16227766017,-99999.0,'1111122,1111122,1199999999' 
COMPS,ioos:station:USF.COMPS:C10:1,2009-01-04T13:00:00Z,27.1690,-82.9260,4.0,180.0,2.0,-99999.0,'1111122,1111122,1199999999' 
COMPS,ioos:station:USF.COMPS:C10:1,2009-01-04T14:00:00Z,27.1690,-82.9260,4.0,243.434948823,2.2360679775,-99999.0,'1111122,1111122,1199999999' 
COMPS,ioos:station:USF.COMPS:C10:1,2009-01-04T15:00:00Z,27.1690,-82.9260,4.0,270.0,1.0,-99999.0,'1113322,1111122,1199999999' 
COMPS,ioos:station:USF.COMPS:C10:1,2009-01-04T16:00:00Z,27.1690,-82.9260,4.0,90.0,1.0,-99999.0,'1113322,1111122,1199999999' 
COMPS,ioos:station:USF.COMPS:C10:1,2009-01-04T17:00:00Z,27.1690,-82.9260,4.0,0.0,2.0,-99999.0,'1111122,1114422,1199999999' 
COMPS,ioos:station:USF.COMPS:C10:1,2009-01-04T18:00:00Z,27.1690,-82.9260,4.0,0.0,4.0,-99999.0,'1111122,1114422,1199999999' 
COMPS,ioos:station:USF.COMPS:C10:1,2009-01-04T19:00:00Z,27.1690,-82.9260,4.0,345.963756532,8.24621125124,-99999.0,'1111122,1111122,1199999999' 
COMPS,ioos:station:USF.COMPS:C10:1,2009-01-04T20:00:00Z,27.1690,-82.9260,4.0,339.44395478,8.54400374532,-99999.0,'1111122,1111122,1199999999' 
COMPS,ioos:station:USF.COMPS:C10:1,2009-01-04T21:00:00Z,27.1690,-82.9260,4.0,330.255118703,8.0622577483,-99999.0,'1111122,1111122,1199999999' 
COMPS,ioos:station:USF.COMPS:C10:1,2009-01-04T22:00:00Z,27.1690,-82.9260,4.0,315.0,8.48528137424,-99999.0,'1111122,1111122,1199999999' 
COMPS,ioos:station:USF.COMPS:C10:1,2009-01-04T23:00:00Z,27.1690,-82.9260,4.0,290.55604522,8.54400374532,-99999.0,'1111122,1111122,1199999999' 
COMPS,ioos:station:USF.COMPS:C10:1,2009-01-05T00:00:00Z,27.1690,-82.9260,4.0,282.528807709,9.21954445729,-99999.0,'1111122,1111122,1199999999' 
COMPS,ioos:station:USF.COMPS:C10:1,2009-01-05T01:00:00Z,27.1690,-82.9260,4.0,270.0,8.0,-99999.0,'1111122,1111122,1199999999' 
COMPS,ioos:station:USF.COMPS:C10:1,2009-01-05T02:00:00Z,27.1690,-82.9260,4.0,270.0,9.0,-99999.0,'1111122,1111122,1199999999' 
COMPS,ioos:station:USF.COMPS:C10:1,2009-01-05T03:00:00Z,27.1690,-82.9260,4.0,276.340191746,9.05538513814,-99999.0,'1111122,1111122,1199999999' 
COMPS,ioos:station:USF.COMPS:C10:1,2009-01-05T04:00:00Z,27.1690,-82.9260,4.0,270.0,9.0,-99999.0,'1111122,1111122,1199999999' 
COMPS,ioos:station:USF.COMPS:C10:1,2009-01-05T05:00:00Z,27.1690,-82.9260,4.0,270.0,10.0,-99999.0,'1111122,1111122,1199999999' 
COMPS,ioos:station:USF.COMPS:C10:1,2009-01-05T06:00:00Z,27.1690,-82.9260,4.0,285.945395901,7.28010988928,-99999.0,'1111122,1111122,1199999999' 
COMPS,ioos:station:USF.COMPS:C10:1,2009-01-05T07:00:00Z,27.1690,-82.9260,4.0,285.945395901,7.28010988928,-99999.0,'1111122,1111122,1199999999' 
COMPS,ioos:station:USF.COMPS:C10:1,2009-01-05T08:00:00Z,27.1690,-82.9260,4.0,306.869897646,5.0,-99999.0,'1111122,1111122,1199999999' 
COMPS,ioos:station:USF.COMPS:C10:1,2009-01-05T09:00:00Z,27.1690,-82.9260,4.0,315.0,8.48528137424,-99999.0,'1111122,1111122,1199999999' 
COMPS,ioos:station:USF.COMPS:C10:1,2009-01-05T10:00:00Z,27.1690,-82.9260,4.0,310.601294645,9.21954445729,-99999.0,'1111122,1111122,1199999999' 
COMPS,ioos:station:USF.COMPS:C10:1,2009-01-05T11:00:00Z,27.1690,-82.9260,4.0,303.690067526,10.8166538264,-99999.0,'1111122,1111122,1199999999' 
COMPS,ioos:station:USF.COMPS:C10:1,2009-01-05T12:00:00Z,27.1690,-82.9260,4.0,302.005383208,9.43398113206,-99999.0,'1111122,1111122,1199999999' 
COMPS,ioos:station:USF.COMPS:C10:1,2009-01-05T13:00:00Z,27.1690,-82.9260,4.0,290.55604522,8.54400374532,-99999.0,'1111122,1111122,1199999999' 
COMPS,ioos:station:USF.COMPS:C10:1,2009-01-05T14:00:00Z,27.1690,-82.9260,4.0,288.434948823,9.48683298051,-99999.0,'1111122,1111122,1199999999' 
COMPS,ioos:station:USF.COMPS:C10:1,2009-01-05T15:00:00Z,27.1690,-82.9260,4.0,291.801409486,5.38516480713,-99999.0,'1111122,1111122,1199999999' 
COMPS,ioos:station:USF.COMPS:C10:1,2009-01-05T16:00:00Z,27.1690,-82.9260,4.0,293.198590514,7.61577310586,-99999.0,'1111122,1111122,1199999999' 
COMPS,ioos:station:USF.COMPS:C10:1,2009-01-05T17:00:00Z,27.1690,-82.9260,4.0,329.036243468,5.83095189485,-99999.0,'1111122,1111122,1199999999' 
COMPS,ioos:station:USF.COMPS:C10:1,2009-01-05T18:00:00Z,27.1690,-82.9260,4.0,326.309932474,10.8166538264,-99999.0,'1111122,1111122,1199999999' 
COMPS,ioos:station:USF.COMPS:C10:1,2009-01-05T19:00:00Z,27.1690,-82.9260,4.0,336.037511025,9.8488578018,-99999.0,'1111122,1111122,1199999999' 
COMPS,ioos:station:USF.COMPS:C10:1,2009-01-05T20:00:00Z,27.1690,-82.9260,4.0,325.007979801,12.2065556157,-99999.0,'1111122,1111122,1199999999' 
COMPS,ioos:station:USF.COMPS:C10:1,2009-01-05T21:00:00Z,27.1690,-82.9260,4.0,318.366460663,12.0415945788,-99999.0,'1111122,1111122,1199999999' 
COMPS,ioos:station:USF.COMPS:C10:1,2009-01-05T22:00:00Z,27.1690,-82.9260,4.0,327.528807709,13.0384048104,-99999.0,'1111122,1111122,1199999999' 
COMPS,ioos:station:USF.COMPS:C10:1,2009-01-05T23:00:00Z,27.1690,-82.9260,4.0,318.012787504,13.4536240471,-99999.0,'1111122,1111122,1199999999' 
COMPS,ioos:station:USF.COMPS:C10:1,2009-01-06T00:00:00Z,27.1690,-82.9260,4.0,325.007979801,12.2065556157,-99999.0,'1111122,1111122,1199999999' 
COMPS,ioos:station:USF.COMPS:C10:1,2009-01-06T01:00:00Z,27.1690,-82.9260,4.0,300.963756532,11.6619037897,-99999.0,'1111122,1111122,1199999999' 
COMPS,ioos:station:USF.COMPS:C10:1,2009-01-06T02:00:00Z,27.1690,-82.9260,4.0,292.619864948,13.0,-99999.0,'1111122,1111122,1199999999' 
COMPS,ioos:station:USF.COMPS:C10:1,2009-01-06T03:00:00Z,27.1690,-82.9260,4.0,274.763641691,12.0415945788,-99999.0,'1111122,1111122,1199999999' 
COMPS,ioos:station:USF.COMPS:C10:1,2009-01-06T04:00:00Z,27.1690,-82.9260,4.0,270.0,10.0,-99999.0,'1111122,1111122,1199999999' 
COMPS,ioos:station:USF.COMPS:C10:1,2009-01-06T05:00:00Z,27.1690,-82.9260,4.0,270.0,9.0,-99999.0,'1111122,1111122,1199999999' 
COMPS,ioos:station:USF.COMPS:C10:1,2009-01-06T06:00:00Z,27.1690,-82.9260,4.0,270.0,8.0,-99999.0,'1111122,1111122,1199999999' 
COMPS,ioos:station:USF.COMPS:C10:1,2009-01-06T07:00:00Z,27.1690,-82.9260,4.0,293.198590514,7.61577310586,-99999.0,'1111122,1111122,1199999999' 
COMPS,ioos:station:USF.COMPS:C10:1,2009-01-06T08:00:00Z,27.1690,-82.9260,4.0,309.805571092,7.81024967591,-99999.0,'1111122,1111122,1199999999' 
COMPS,ioos:station:USF.COMPS:C10:1,2009-01-06T09:00:00Z,27.1690,-82.9260,4.0,299.744881297,8.0622577483,-99999.0,'1111122,1111122,1199999999' 
COMPS,ioos:station:USF.COMPS:C10:1,2009-01-06T10:00:00Z,27.1690,-82.9260,4.0,288.434948823,6.32455532034,-99999.0,'1111122,1111122,1199999999' 
COMPS,ioos:station:USF.COMPS:C10:1,2009-01-06T11:00:00Z,27.1690,-82.9260,4.0,296.565051177,6.7082039325,-99999.0,'1111122,1111122,1199999999' 
COMPS,ioos:station:USF.COMPS:C10:1,2009-01-06T12:00:00Z,27.1690,-82.9260,4.0,279.462322208,6.0827625303,-99999.0,'1111122,1111122,1199999999' 
COMPS,ioos:station:USF.COMPS:C10:1,2009-01-06T13:00:00Z,27.1690,-82.9260,4.0,281.309932474,5.09901951359,-99999.0,'1111122,1111122,1199999999' 
COMPS,ioos:station:USF.COMPS:C10:1,2009-01-06T14:00:00Z,27.1690,-82.9260,4.0,270.0,5.0,-99999.0,'1111122,1111122,1199999999' 
COMPS,ioos:station:USF.COMPS:C10:1,2009-01-06T15:00:00Z,27.1690,-82.9260,4.0,255.963756532,4.12310562562,-99999.0,'1111122,1111122,1199999999' 
COMPS,ioos:station:USF.COMPS:C10:1,2009-01-06T16:00:00Z,27.1690,-82.9260,4.0,71.5650511771,3.16227766017,-99999.0,'1111122,1111122,1199999999' 
COMPS,ioos:station:USF.COMPS:C10:1,2009-01-06T17:00:00Z,27.1690,-82.9260,4.0,270.0,1.0,-99999.0,'1113322,1111122,1199999999' 
COMPS,ioos:station:USF.COMPS:C10:1,2009-01-06T18:00:00Z,27.1690,-82.9260,4.0,71.5650511771,3.16227766017,-99999.0,'1111122,1111122,1199999999' 
COMPS,ioos:station:USF.COMPS:C10:1,2009-01-06T19:00:00Z,27.1690,-82.9260,4.0,45.0,4.24264068712,-99999.0,'1111122,1111122,1199999999' 
COMPS,ioos:station:USF.COMPS:C10:1,2009-01-06T20:00:00Z,27.1690,-82.9260,4.0,21.8014094864,5.38516480713,-99999.0,'1111122,1111122,1199999999' 
COMPS,ioos:station:USF.COMPS:C10:1,2009-01-06T21:00:00Z,27.1690,-82.9260,4.0,15.9453959009,7.28010988928,-99999.0,'1111122,1111122,1199999999' 
COMPS,ioos:station:USF.COMPS:C10:1,2009-01-06T22:00:00Z,27.1690,-82.9260,4.0,26.5650511771,4.472135955,-99999.0,'1111122,1111122,1199999999' 
COMPS,ioos:station:USF.COMPS:C10:1,2009-01-06T23:00:00Z,27.1690,-82.9260,4.0,0.0,5.0,-99999.0,'1111122,1114422,1199999999' 
COMPS,ioos:station:USF.COMPS:C10:1,2009-01-07T00:00:00Z,27.1690,-82.9260,4.0,341.565051177,6.32455532034,-99999.0,'1111122,1111122,1199999999' 
COMPS,ioos:station:USF.COMPS:C10:1,2009-01-07T01:00:00Z,27.1690,-82.9260,4.0,321.340191746,6.40312423743,-99999.0,'1111122,1111122,1199999999' 
COMPS,ioos:station:USF.COMPS:C10:1,2009-01-07T02:00:00Z,27.1690,-82.9260,4.0,309.805571092,7.81024967591,-99999.0,'1111122,1111122,1199999999' 
COMPS,ioos:station:USF.COMPS:C10:1,2009-01-07T03:00:00Z,27.1690,-82.9260,4.0,248.198590514,5.38516480713,-99999.0,'1111122,1111122,1199999999' 
COMPS,ioos:station:USF.COMPS:C10:1,2009-01-07T04:00:00Z,27.1690,-82.9260,4.0,258.690067526,5.09901951359,-99999.0,'1111122,1111122,1199999999' 
COMPS,ioos:station:USF.COMPS:C10:1,2009-01-07T05:00:00Z,27.1690,-82.9260,4.0,213.690067526,3.60555127546,-99999.0,'1111122,1111122,1199999999' 
COMPS,ioos:station:USF.COMPS:C10:1,2009-01-07T06:00:00Z,27.1690,-82.9260,4.0,194.036243468,4.12310562562,-99999.0,'1111122,1111122,1199999999' 
COMPS,ioos:station:USF.COMPS:C10:1,2009-01-07T07:00:00Z,27.1690,-82.9260,4.0,153.434948823,2.2360679775,-99999.0,'1111122,1111122,1199999999' 
COMPS,ioos:station:USF.COMPS:C10:1,2009-01-07T08:00:00Z,27.1690,-82.9260,4.0,63.4349488229,2.2360679775,-99999.0,'1111122,1111122,1199999999' 
COMPS,ioos:station:USF.COMPS:C10:1,2009-01-07T09:00:00Z,27.1690,-82.9260,4.0,11.309932474,5.09901951359,-99999.0,'1111122,1111122,1199999999' 
COMPS,ioos:station:USF.COMPS:C10:1,2009-01-07T10:00:00Z,27.1690,-82.9260,4.0,0.0,6.0,-99999.0,'1111122,1114422,1199999999' 
COMPS,ioos:station:USF.COMPS:C10:1,2009-01-07T11:00:00Z,27.1690,-82.9260,4.0,14.0362434679,8.24621125124,-99999.0,'1111122,1111122,1199999999' 
COMPS,ioos:station:USF.COMPS:C10:1,2009-01-07T12:00:00Z,27.1690,-82.9260,4.0,7.1250163489,8.0622577483,-99999.0,'1111122,1111122,1199999999' 
COMPS,ioos:station:USF.COMPS:C10:1,2009-01-07T13:00:00Z,27.1690,-82.9260,4.0,0.0,8.0,-99999.0,'1111122,1114422,1199999999' 
COMPS,ioos:station:USF.COMPS:C10:1,2009-01-07T14:00:00Z,27.1690,-82.9260,4.0,12.5288077092,9.21954445729,-99999.0,'1111122,1111122,1199999999' 
COMPS,ioos:station:USF.COMPS:C10:1,2009-01-07T15:00:00Z,27.1690,-82.9260,4.0,0.0,7.0,-99999.0,'1111122,1114422,1199999999' 
COMPS,ioos:station:USF.COMPS:C10:1,2009-01-07T16:00:00Z,27.1690,-82.9260,4.0,333.434948823,6.7082039325,-99999.0,'1111122,1111122,1199999999' 
COMPS,ioos:station:USF.COMPS:C10:1,2009-01-07T17:00:00Z,27.1690,-82.9260,4.0,320.194428908,7.81024967591,-99999.0,'1111122,1111122,1199999999' 
COMPS,ioos:station:USF.COMPS:C10:1,2009-01-07T18:00:00Z,27.1690,-82.9260,4.0,315.0,8.48528137424,-99999.0,'1111122,1111122,1199999999' 
COMPS,ioos:station:USF.COMPS:C10:1,2009-01-07T19:00:00Z,27.1690,-82.9260,4.0,318.012787504,13.4536240471,-99999.0,'1111122,1111122,1199999999' 
COMPS,ioos:station:USF.COMPS:C10:1,2009-01-07T20:00:00Z,27.1690,-82.9260,4.0,312.709389957,17.691806013,-99999.0,'1111122,1111122,1199999999' 
COMPS,ioos:station:USF.COMPS:C10:1,2009-01-07T21:00:00Z,27.1690,-82.9260,4.0,309.093858886,20.6155281281,-99999.0,'1111122,1111122,1199999999' 
COMPS,ioos:station:USF.COMPS:C10:1,2009-01-07T22:00:00Z,27.1690,-82.9260,4.0,304.992020199,24.4131112315,-99999.0,'1111122,1111122,1199999999' 
COMPS,ioos:station:USF.COMPS:C10:1,2009-01-07T23:00:00Z,27.1690,-82.9260,4.0,297.645975364,23.7065391823,-99999.0,'1111122,1111122,1199999999' 
COMPS,ioos:station:USF.COMPS:C10:1,2009-01-08T00:00:00Z,27.1690,-82.9260,4.0,298.810793743,22.825424421,-99999.0,'1111122,1111122,1199999999' 
COMPS,ioos:station:USF.COMPS:C10:1,2009-01-08T01:00:00Z,27.1690,-82.9260,4.0,294.227745318,21.9317121995,-99999.0,'1111122,1111122,1199999999' 
COMPS,ioos:station:USF.COMPS:C10:1,2009-01-08T02:00:00Z,27.1690,-82.9260,4.0,289.983106522,23.4093998214,-99999.0,'1111122,1111122,1199999999' 
COMPS,ioos:station:USF.COMPS:C10:1,2009-01-08T03:00:00Z,27.1690,-82.9260,4.0,277.431407971,23.1948270095,-99999.0,'1111122,1111122,1199999999' 
COMPS,ioos:station:USF.COMPS:C10:1,2009-01-08T04:00:00Z,27.1690,-82.9260,4.0,272.862405226,20.0249843945,-99999.0,'1111122,1111122,1199999999' 
COMPS,ioos:station:USF.COMPS:C10:1,2009-01-08T05:00:00Z,27.1690,-82.9260,4.0,267.137594774,20.0249843945,-99999.0,'1111122,1111122,1199999999' 
COMPS,ioos:station:USF.COMPS:C10:1,2009-01-08T06:00:00Z,27.1690,-82.9260,4.0,266.82016988,18.0277563773,-99999.0,'1111122,1111122,1199999999' 
COMPS,ioos:station:USF.COMPS:C10:1,2009-01-08T07:00:00Z,27.1690,-82.9260,4.0,265.91438322,14.0356688476,-99999.0,'1111122,1111122,1199999999' 
COMPS,ioos:station:USF.COMPS:C10:1,2009-01-08T08:00:00Z,27.1690,-82.9260,4.0,279.462322208,6.0827625303,-99999.0,'1111122,1111122,1199999999' 
COMPS,ioos:station:USF.COMPS:C10:1,2009-01-08T09:00:00Z,27.1690,-82.9260,4.0,326.309932474,7.21110255093,-99999.0,'1111122,1111122,1199999999' 
COMPS,ioos:station:USF.COMPS:C10:1,2009-01-08T10:00:00Z,27.1690,-82.9260,4.0,327.994616792,9.43398113206,-99999.0,'1111122,1111122,1199999999' 
COMPS,ioos:station:USF.COMPS:C10:1,2009-01-08T11:00:00Z,27.1690,-82.9260,4.0,324.462322208,8.60232526704,-99999.0,'1111122,1111122,1199999999' 
COMPS,ioos:station:USF.COMPS:C10:1,2009-01-08T13:00:00Z,27.1690,-82.9260,4.0,330.945395901,10.295630141,-99999.0,'1111122,1111122,1199999999' 